Location: Asheville, NC
(35.6000°N, 82.5500°W)
Time: 19:47:26
(UTC-04:00)

Vanguard 3 - Pass Details

Date: 09 March 2018
Orbit: 508 x 3264 km, 33.3° (Epoch: 23 June)

Event Time Altitude Azimuth Distance (km) Brightness Sun altitude
Rises 09:18:07 0° 233° (SW) 7,222 11.8 28.0°
Reaches altitude 10° 09:23:16 10° 229° (SW) 6,135 11.5 28.9°
Maximum altitude 09:41:21 57° 158° (SSE) 2,879 11.1 32.0°
Drops below altitude 10° 09:52:59 10° 84° (E) 4,121 11.5 34.0°
Sets 09:55:43 0° 80° (E) 4,803 11.6 34.4°
